www.pogodaiklimat.ru

Погода и климат >> Архив погоды >> Аргентина >> Санта-Фе


ПОГОДА в Санта-Фе

  • Прогноз погоды в Санта-Фе
  • Монитор погоды в Санта-Фе

АРХИВ ПОГОДЫ в Санта-Фе

Время (UTC), дата Ветер
(напр.,м/с)
 
Видим.   Явления Облачность Т
(С)
Тd
(С)
f
(%)
Тe
(С)
Тes
(С)
Комфортность P
(гПа)
Po
(гПа)
Тmin
(С)
Tmax
(С)
R
(мм)
R24
(мм)
S
(см)
03 10.09 Ю 4 8000 м слаб. морось 10/10 150 м
[St]
+13.5 +12.4 93 +12 +12 1017.4 1015.2
06 10.09 Ю 5 12 км в посл. час морось 10/10 180 м
[St]
+12.5 +11.2 92 +10 +10 1015.9 1013.7 0.5
09 10.09 Ю 4 12 км 10/10 360 м
[St]
+13.1 +11.8 92 +11 +11 1017.7 1015.6
12 10.09 Ю 4 12 км {морось} 8/4 240 м
[St Ac As]
+13.6 +12.1 91 +12 +13 1018.8 1016.6 +11.5 +14.8 0.3
15 10.09 Ю 4 12 км 9/9 500 м
[Sc]
+16.2 +13.0 81 +15 +16 1018.9 1016.8
18 10.09 Ю 6 12 км 8/5 600 м
[Sc Ac As]
+17.0 +12.9 77 +16 +17 1017.7 1015.6
21 10.09 Ю 4 12 км 9/5 1050 м
[Sc Ac As]
+16.6 +11.7 73 +16 +16 1017.0 1014.8
00 11.09 Ю 4 12 км 10/10 750 м
[Sc]
+15.1 +12.4 84 +14 +14 1019.1 1016.9 +13.6 +17.0
03 11.09 Ю 3 12 км 10/6 1350 м
[Sc Ac As]
+14.1 +12.5 90 +13 +13 1020.2 1018.0
06 11.09 Ю 3 12 км 10/0
[Ac As]
+12.9 +11.6 92 +12 +12 1018.0 1015.8
09 11.09 Ю 3 12 км 4/0
[Ac As]
+11.8 +10.7 93 +10 +10 1016.8 1014.6
12 11.09 Ю 5 12 км 9/8 240 м
[St Ac As]
+13.1 +11.4 89 +11 +11 1018.7 1016.5 +11.2 +15.1
15 11.09 Ю 5 12 км 6/4 300 м
[St Ac trans]
+15.5 +12.2 81 +14 +18 1018.1 1016.0
18 11.09 Ю 7 12 км 3/3 750 м
[Sc]
+19.2 +10.8 58 +20 +22 1016.0 1013.8
21 11.09 Ю 5 12 км 9/8 1050 м
[Sc Ac As]
+18.0 +11.1 64 +18 +18 1016.5 1014.4
00 12.09 Ю 6 12 км 6/0
[Ac As]
+15.1 +10.0 72 +13 +13 1019.2 1017.0 +13.1 +19.5
03 12.09 ЮЗ 3 12 км ясно +10.7 +9.5 92 +9 +9 1021.1 1018.9
06 12.09 ЮЗ 5 12 км ясно +9.8 +8.4 91 +6 +6 1021.7 1019.6
09 12.09 ЮЗ 5 12 км ясно +8.3 +6.6 89 +5 +5 1022.6 1020.4
12 12.09 ЮЗ 4 12 км 10/10 360 м
[St]
+9.3 +6.8 84 +6 +6 1024.5 1022.4 +8.2 +15.1
15 12.09 ЮЗ 4 12 км ясно +13.8 +6.6 62 +12 +22 1024.9 1022.8
18 12.09 Ю 4 12 км ясно +17.8 +1.7 34 +18 +26 1023.2 1021.0
21 12.09 Ю 2 12 км ясно +17.0 +4.1 42 +18 +19 1022.6 1020.4
00 13.09 штиль 0 12 км ясно +10.9 +7.2 78 +10 +10 1023.5 1021.3 +9.3 +17.8
03 13.09 С 1 12 км ясно +8.4 +6.9 90 +8 +8 1024.2 1022.0
06 13.09 С 1 12 км ясно +6.6 +5.5 93 +5 +5 1023.5 1021.3
09 13.09 В 2 12 км ясно +6.5 +5.4 93 +5 +5 1022.8 1020.6
12 13.09 В 2 12 км {туман} 1/0
[Ci fib]
+12.6 +8.2 75 +12 +15 1024.3 1022.1 +5.3 +12.6
15 13.09 В 4 12 км 3/0
[Ci]
+17.7 +6.8 49 +17 +26 1023.5 1021.3
18 13.09 В 5 12 км ясно +19.6 +4.1 36 +20 +27 1020.5 1018.4
21 13.09 В 4 12 км ясно +18.9 +6.4 44 +19 +20 1018.7 1016.5
00 14.09 штиль 0 12 км ясно +13.1 +7.2 67 +13 +13 1019.3 1017.2 +12.6 +20.0
03 14.09 В 2 12 км ясно +11.5 +7.8 78 +10 +10 1019.6 1017.4
06 14.09 В 3 12 км ясно +11.4 +8.4 82 +10 +10 1017.1 1014.9
09 14.09 В 3 12 км ясно +11.6 +9.2 85 +10 +10 1015.5 1013.3
12 14.09 В 4 12 км 4/0
[Ac trans]
+14.5 +11.6 83 +13 +15 1016.2 1014.0 +10.5 +14.5
15 14.09 В 6 12 км 3/3 600 м
[Cu hum]
+12.4 +11 +14 1014.2 1012.1
18 14.09 СВ 4 12 км 4/4 1200 м
[Sc]
+22.6 +13.2 55 +26 +31 жарко 1011.2 1009.0
21 14.09 В 5 12 км ясно +21.1 +11.9 56 +23 +24 комфорт 1009.0 1006.9
00 15.09 В 3 12 км ясно +17.5 +11.7 69 +18 +18 1009.5 1007.4 +14.2 +22.8
03 15.09 В 1 12 км ясно +13.1 +11.2 88 +13 +13 1009.4 1007.3
06 15.09 В 3 12 км ясно +13.6 +11.8 89 +13 +13 1007.4 1005.3
09 15.09 В 3 12 км ясно +13.8 +11.6 87 +13 +13 1006.2 1004.1
12 15.09 В 5 12 км ясно +18.4 +14.1 76 +19 +20 1007.2 1005.0 +13.0 +18.4
15 15.09 В 5 12 км ясно +24.8 +15.9 58 +28 +36 жарко 1005.7 1003.6
18 15.09 В 5 12 км ясно +29.3 +16.9 47 +33 +39 душно 1002.6 1000.5
21 15.09 ЮВ 5 12 км ясно +27.7 +17.3 53 +32 +32 очень
душно
1002.3 1000.2
00 16.09 Ю 6 12 км ясно +22.1 +17.3 74 +27 +27 душно 1005.0 1002.9 +18.4 +29.5
03 16.09 Ю 6 12 км 6/0 2000 м
[Ac As]
+20.5 +16.1 76 +23 +23 комфорт 1008.1 1006.0
06 16.09 Ю 9 12 км 9/0
[Ac As Cs]
+15.7 +12.8 83 +14 +14 1010.2 1008.1
09 16.09 Ю 11 12 км 10/0 2000 м
[Ac As]
+14.9 +11.2 79 +12 +12 1012.8 1010.6
12 16.09 Ю 8 12 км 10/0 1500 м
[Ac As]
+15.3 +9.1 66 +13 +14 1018.4 1016.4 +14.5 +22.1
15 16.09 Ю 8 12 км 10/0
[Ac As]
+17.7 +8.7 56 +17 +18 1021.0 1018.9
18 16.09 Ю 10 12 км 4/0
[Ac und]
+21.4 +7.2 40 +22 +23 комфорт 1019.8 1017.7
21 16.09 Ю 7 12 км ясно +19.5 +5.4 40 +20 +20 1019.6 1017.4
00 17.09 ЮЗ 2 12 км ясно +14.2 +6.1 58 +14 +14 1021.5 1019.3 +14.2 +21.6

 

Местоположение метеостанции Санта-Фе (Аргентина): широта -31.70 долгота -60.81 высота над уровнем моря 18 м.

В архиве по умолчанию представлена погода в Санта-Фе за последнюю неделю. Архивные данные за месяц целиком и за предыдущие месяцы, начиная с января 2011 года, Вы можете получить, выбрав интересующий диапазон дат из раскрывающегося списка и нажав кнопку "Ввод!".


*Определитесь, кто Вы:
робот инопланетянин человек

Внимание! Время в таблицах - всемирное. Для получения местного времени необходимо прибавить поправку, которая равна -3 ч.

Смотрите также архив погоды в соседних городах и на ближайших метеорологических станциях:

Погода в Паране (Аргентина) (32 км)
Погода в Росарио (Аргентина) (135 км)
Погода в Маркос Хуарес (Аргентина) (168 км)
Погода в Сересе (Аргентина) (230 км)
Погода в Гуалегуайчу (Аргентина) (252 км)
Погода в Конкордии (Аргентина) (269 км)
Погода в Пайсанду (Уругвай) (271 км)
Погода в Сальто (Уругвай) (273 км)
Погода в Пиларе (Аргентина) (291 км)
Погода в Реконкисте (Аргентина) (300 км)

Пояснения к столбцам:

Ветер - указаны скорость ветра в м/с - средняя за 10 мин, порывы в срок и между сроками (в фигурных скобках) и направление, откуда дует ветер: С - северный, СВ - северо-восточный, В - восточный, ЮВ - юго-восточный, Ю - южный, ЮЗ - юго-западный, З - западный, СЗ - северо-западный.
Видимость - горизонтальная дальность видимости в метрах или километрах. При видимости от 1 до 10 км при отсутствии осадков обычно наблюдается дымка, при ухудшении видимости до 1 км и менее - туман. В сухую погоду видимость может ухудшаться дымом, пылью или мглою.
Явления - указаны атмосферные явления, наблюдавшиеся в срок или в последний час перед сроком; фигурными скобками обозначены явления, наблюдавшиеся между сроками (за 1-3 часа до срока); квадратными скобками обозначены град или гололедные отложения с указанием их диаметра в мм.
Облачность - указаны через наклонную черту общая и нижняя облачность в баллах и высота нижней границы облаков в метрах; квадратными скобками обозначены формы облаков: Ci - перистые, Cs - перисто-слоистые, Cc - перисто-кучевые, Ac - высококучевые, As - высокослоистые, Sc - слоисто-кучевые, Ns - слоисто-дождевые, Cu - кучевые, Cb - кучево-дождевые. Подробнее классификацию облаков см. в Атласе облаков (PDF).
T - Температура воздуха - температура, измеренная на высоте 2 м над землей.
Td - Температура точки росы - температура, при понижении до которой содержащийся в воздухе водяной пар достигнет насыщения.
f - Относительная влажность воздуха - влажноcть воздуха, измеренная на высоте 2 м над землей.
Te - Эффективная температура - температура, которую ощущает одетый по сезону человек в тени. Характеристика душности погоды. При расчете учитывается влияние влажности воздуха и скорости ветра на теплоощущения человека.
Tes - Эффективная температура на солнце - температура, которую ощущает человек, с поправкой на солнечный нагрев. Характеристика знойности погоды. Зависит от высоты солнца над горизонтом, облачности и скорости ветра. Ночью, в пасмурную погоду, а также при ветре 12 м/с и более поправка равна нулю.
P - Атмосферное давление - приведенное к уровню моря атмосферное давление.
Po - Атмосферное давление - измеренное на уровне метеостанции атмосферное давление.
Tmin - Минимальная температура - минимум температуры воздуха на высоте 2 м над землей.
Tmax - Максимальная температура - максимум температуры воздуха на высоте 2 м над землей.
R - Количество осадков - Количество выпавших осадков за период времени, мм. При наведении курсора мыши на число - период времени, за который выпало указанное количество осадков.
R24 - Количество осадков - Количество выпавших осадков за 24 часа, мм.
S - Снежный покров - Высота снежного покрова, см. При наведении курсора мыши на число - состояние снежного покрова и степень покрытия местности в баллах.